,,PA_Meas_PMT16A,,PR_Meas_QMR101_102,,RH_Meas_QMH101,,SR_Meas_QMS101,,TA_Meas_QMH101,,GenWind,,GenWind,
time,status,PA,status,PR,status,RH,status,SR,status,TA,status,DirAvg,status,SpdAvg,
2016-11-02, 14:14:04,VALID,917.582,VALID,0,INVALID,115.655,VALID,199.411,VALID,19.5303,VALID,274,VALID,0,
2016-11-02, 14:15:04,VALID,917.592,VALID,0,INVALID,115.563,VALID,204.89,VALID,19.5873,VALID,274,VALID,0,
2016-11-02, 14:16:04,VALID,917.606,VALID,0,INVALID,115.403,VALID,216.494,VALID,19.7043,VALID,275,VALID,0,
2016-11-02, 14:17:04,VALID,917.621,VALID,0,INVALID,115.403,VALID,210.692,VALID,19.7043,VALID,275,VALID,0,
2016-11-02, 14:18:04,VALID,917.648,VALID,0,INVALID,115.51,VALID,221.651,VALID,19.6068,VALID,282,VALID,0,
2016-11-02, 14:19:04,VALID,917.695,VALID,0,INVALID,115.579,VALID,197.907,VALID,19.6053,VALID,284,VALID,0,
2016-11-02, 14:21:04,VALID,917.671,VALID,0,INVALID,115.457,VALID,216.386,VALID,19.7043,VALID,293,VALID,0,
2016-11-02, 14:22:04,VALID,917.69,VALID,0,INVALID,115.365,VALID,205.105,VALID,19.8018,VALID,293,VALID,0,
2016-11-02, 14:23:04,VALID,917.715,VALID,0,INVALID,115.358,VALID,158.368,VALID,19.8018,VALID,313,VALID,0,
2016-11-02, 14:25:04,VALID,917.755,VALID,0,INVALID,115.51,VALID,169.327,VALID,19.7613,VALID,322,VALID,0,
2016-11-02, 14:27:04,VALID,917.791,VALID,0,INVALID,115.525,VALID,167.178,VALID,19.8018,VALID,306,VALID,0,
2016-11-02, 14:28:04,VALID,917.811,VALID,0,INVALID,115.693,VALID,209.51,VALID,19.6833,VALID,306,VALID,0,
2016-11-02, 14:29:04,VALID,917.783,VALID,0,INVALID,115.655,VALID,210.8,VALID,19.7028,VALID,306,VALID,0,
2016-11-02, 14:30:04,VALID,917.831,VALID,0,INVALID,115.525,VALID,196.08,VALID,19.8018,VALID,306,VALID,0,
2016-11-02, 14:31:04,VALID,917.815,VALID,0,INVALID,115.609,VALID,235.726,VALID,19.7418,VALID,304,VALID,0,
2016-11-02, 14:32:04,VALID,917.841,VALID,0,INVALID,115.609,VALID,242.172,VALID,19.7808,VALID,304,VALID,0,
2016-11-02, 14:33:04,VALID,917.862,VALID,0,INVALID,115.601,VALID,181.576,VALID,19.8003,VALID,303,VALID,0,
2016-11-02, 14:34:04,VALID,917.898,VALID,0,INVALID,115.64,VALID,223.692,VALID,19.8198,VALID,298,VALID,0,
2016-11-02, 14:35:04,VALID,917.863,VALID,0,INVALID,115.701,VALID,243.462,VALID,19.8198,VALID,302,VALID,0,
2016-11-02, 14:36:04,VALID,917.881,VALID,0,INVALID,115.67,VALID,239.594,VALID,19.8588,VALID,303,VALID,0,
2016-11-02, 14:37:04,VALID,917.919,VALID,0,INVALID,115.655,VALID,237.875,VALID,19.9368,VALID,313,VALID,0,
2016-11-02, 14:38:04,VALID,917.944,VALID,0,INVALID,115.685,VALID,242.495,VALID,19.9953,VALID,9,VALID,0,
2016-11-02, 14:39:04,VALID,917.933,VALID,0,INVALID,115.563,VALID,230.354,VALID,20.1123,VALID,314,VALID,0,
2016-11-02, 14:40:04,VALID,917.951,VALID,0,INVALID,115.556,VALID,215.205,VALID,20.1708,VALID,308,VALID,0,
2016-11-02, 14:41:04,VALID,917.964,VALID,0,INVALID,115.609,VALID,209.51,VALID,20.2083,VALID,308,VALID,0,
2016-11-02, 14:42:04,VALID,917.95,VALID,0,INVALID,115.708,VALID,194.146,VALID,20.2489,VALID,276,VALID,0,
2016-11-02, 14:43:04,VALID,917.981,VALID,0,INVALID,115.853,VALID,203.279,VALID,20.2489,VALID,279,VALID,0,
2016-11-02, 14:44:04,VALID,917.994,VALID,0,INVALID,116.036,VALID,208.866,VALID,20.2489,VALID,291,VALID,0,
2016-11-02, 14:45:04,VALID,917.978,VALID,0,INVALID,115.906,VALID,224.445,VALID,20.4049,VALID,289,VALID,0,
2016-11-02, 14:46:04,VALID,917.999,VALID,0,INVALID,116.044,VALID,230.998,VALID,20.4439,VALID,334,VALID,0,
2016-11-02, 14:47:04,VALID,917.982,VALID,0,INVALID,116.379,VALID,232.073,VALID,20.4439,VALID,323,VALID,0,
2016-11-02, 14:48:04,VALID,918.015,VALID,0,INVALID,116.684,VALID,234.651,VALID,20.3838,VALID,290,VALID,0,
2016-11-02, 14:49:04,VALID,917.993,VALID,0,INVALID,116.783,VALID,258.181,VALID,20.4829,VALID,346,VALID,0,
2016-11-02, 14:50:04,VALID,918.009,VALID,0,INVALID,117.065,VALID,292.992,VALID,20.5219,VALID,324,VALID,0,
2016-11-02, 14:51:04,VALID,918.004,VALID,0,INVALID,117.439,VALID,300.943,VALID,20.5414,VALID,324,VALID,0,
2016-11-02, 14:52:04,VALID,918.022,VALID,0,INVALID,117.362,VALID,300.835,VALID,20.678,VALID,348,VALID,0,
2016-11-02, 14:53:04,VALID,918.006,VALID,0,INVALID,117.606,VALID,302.984,VALID,20.8145,VALID,322,VALID,0,
2016-11-02, 14:54:04,VALID,918.026,VALID,0,INVALID,117.767,VALID,304.918,VALID,20.969,VALID,348,VALID,0,
2016-11-02, 14:55:04,VALID,918.052,VALID,0,INVALID,118.681,VALID,306.207,VALID,20.9495,VALID,295,VALID,0,
2016-11-02, 14:56:04,VALID,918.049,VALID,0,INVALID,119.123,VALID,308.786,VALID,21.047,VALID,302,VALID,0,
2016-11-02, 14:57:04,VALID,918.085,VALID,0,INVALID,119.375,VALID,318.885,VALID,21.2616,VALID,343,VALID,0,
2016-11-02, 14:58:04,VALID,918.103,VALID,0,INVALID,120.358,VALID,324.472,VALID,21.3396,VALID,303,VALID,0,
2016-11-02, 14:59:04,VALID,918.095,VALID,0,INVALID,121.38,VALID,319.637,VALID,21.3185,VALID,309,VALID,0,
2016-11-02, 15:00:04,VALID,918.117,VALID,0,INVALID,121.998,VALID,304.166,VALID,21.3575,VALID,303,VALID,0,
2016-11-02, 15:01:04,VALID,918.116,VALID,0,INVALID,122.28,VALID,361.325,VALID,21.4941,VALID,324,VALID,0,
2016-11-02, 15:02:04,VALID,918.123,VALID,0,INVALID,122.234,VALID,281.388,VALID,21.6501,VALID,353,VALID,0,
2016-11-02, 15:03:04,VALID,918.12,VALID,0,INVALID,121.456,VALID,316.629,VALID,21.7883,VALID,336,VALID,0,
2016-11-02, 15:04:04,VALID,918.118,VALID,0,INVALID,119.893,VALID,331.026,VALID,21.9038,VALID,4,VALID,0,
2016-11-02, 15:05:04,VALID,918.142,VALID,0,INVALID,117.949,VALID,282.248,VALID,22.0598,VALID,339,VALID,0,
2016-11-02, 15:06:04,VALID,918.137,VALID,0,VALID,102.863,VALID,235.511,VALID,22.1769,VALID,24,VALID,0,
2016-11-02, 15:07:04,VALID,918.174,VALID,0,VALID,95.2165,VALID,306.637,VALID,22.2354,VALID,336,VALID,0,
2016-11-02, 15:08:04,VALID,918.148,VALID,0,VALID,93.2649,VALID,397.962,VALID,22.3542,VALID,15,VALID,0,
2016-11-02, 15:09:04,VALID,918.147,VALID,0,VALID,96.2304,VALID,315.877,VALID,22.4713,VALID,27,VALID,0,
2016-11-02, 15:10:04,VALID,918.141,VALID,0,VALID,87.3415,VALID,227.453,VALID,22.3933,VALID,251,VALID,0,
2016-11-02, 15:11:04,VALID,918.194,VALID,0,VALID,90.7491,VALID,393.342,VALID,22.3152,VALID,293,VALID,0,
2016-11-02, 15:12:04,VALID,918.217,VALID,0,VALID,95.6586,VALID,393.449,VALID,22.2176,VALID,300,VALID,0,
2016-11-02, 15:13:04,VALID,918.204,VALID,0,VALID,103.29,VALID,171.261,VALID,22.2567,VALID,320,VALID,0,
2016-11-02, 15:14:04,VALID,918.197,VALID,0,VALID,99.0053,VALID,224.445,VALID,22.1396,VALID,320,VALID,0,
2016-11-02, 15:15:04,VALID,918.222,VALID,0,INVALID,114.534,VALID,273.545,VALID,22.1184,VALID,29,VALID,0,
2016-11-02, 15:16:04,VALID,918.195,VALID,0,INVALID,112.857,VALID,407.202,0,0,0,0,0,0,
